WZZ7WN LCLK-LIRF

Flight info

Callsign WZZ7WN
Flight time N/A
Altitude 38000
Route PHA M31 GENOS DCT TOSKA DCT KUGGI DCT KRK UL995 TIGRA DCT EKTOL DCT IPKAM DCT TEA DCT SIPRO/N0333F180 Z803 LAT
Aircraft A320/M-SDE3FGHIRWY/LB1

Departure

Time 2026-04-27 00:41
Airport Larnaca International Airport (LCLK)

Arrival

Time N/A
Airport Rome–Fiumicino Leonardo da Vinci International Airport (LIRF)
Time Latitude Longitude Altitude Speed Heading
2026-04-27 00:11 34.86877 33.60957 21 ft 0 kts 46°
2026-04-27 00:31 34.86871 33.60948 22 ft 4 kts 46°
2026-04-27 00:31 34.86853 33.60926 21 ft 2 kts 46°
2026-04-27 00:31 34.86838 33.60904 23 ft 4 kts 65°
2026-04-27 00:32 34.86831 33.60873 24 ft 4 kts 92°
2026-04-27 00:32 34.86836 33.60842 23 ft 4 kts 120°
2026-04-27 00:32 34.86844 33.60828 20 ft 0 kts 136°
2026-04-27 00:34 34.86841 33.60833 21 ft 2 kts 136°
2026-04-27 00:34 34.86826 33.60850 23 ft 4 kts 136°
2026-04-27 00:34 34.86802 33.60879 20 ft 1 kts 136°
2026-04-27 00:35 34.86782 33.60901 20 ft 7 kts 136°
2026-04-27 00:35 34.86733 33.60960 20 ft 13 kts 135°
2026-04-27 00:35 34.86660 33.61048 20 ft 16 kts 135°
2026-04-27 00:35 34.86660 33.61160 21 ft 16 kts 44°
2026-04-27 00:36 34.86743 33.61262 20 ft 18 kts 45°
2026-04-27 00:36 34.86839 33.61378 20 ft 21 kts 45°
2026-04-27 00:36 34.86946 33.61509 20 ft 23 kts 45°
2026-04-27 00:36 34.87063 33.61652 21 ft 23 kts 45°
2026-04-27 00:37 34.87166 33.61780 22 ft 22 kts 46°
2026-04-27 00:37 34.87280 33.61917 21 ft 24 kts 45°
2026-04-27 00:37 34.87405 33.62074 20 ft 27 kts 46°
2026-04-27 00:37 34.87541 33.62236 20 ft 29 kts 45°
2026-04-27 00:38 34.87662 33.62385 21 ft 17 kts 44°
2026-04-27 00:38 34.87753 33.62495 20 ft 20 kts 45°
2026-04-27 00:38 34.87854 33.62619 20 ft 22 kts 45°
2026-04-27 00:38 34.87967 33.62757 21 ft 24 kts 45°
2026-04-27 00:39 34.88091 33.62910 21 ft 26 kts 46°
2026-04-27 00:39 34.88225 33.63072 21 ft 29 kts 45°
2026-04-27 00:39 34.88369 33.63249 20 ft 30 kts 46°
2026-04-27 00:39 34.88441 33.63362 20 ft 14 kts 88°
2026-04-27 00:40 34.88383 33.63455 20 ft 15 kts 136°
2026-04-27 00:40 34.88295 33.63513 20 ft 15 kts 197°
2026-04-27 00:40 34.88266 33.63485 21 ft 0 kts 224°
2026-04-27 00:40 34.88225 33.63436 19 ft 36 kts 224°
2026-04-27 00:41 34.87881 33.63019 22 ft 101 kts 226°
2026-04-27 00:41 34.87265 33.62262 21 ft 148 kts 226°
2026-04-27 00:41 34.86473 33.61292 249 ft 170 kts 225°
2026-04-27 00:41 34.85664 33.60245 902 ft 170 kts 227°
2026-04-27 00:42 34.84868 33.59198 1655 ft 167 kts 227°
2026-04-27 00:42 34.84049 33.58128 2107 ft 182 kts 227°
2026-04-27 00:42 34.83131 33.56937 2370 ft 205 kts 227°
2026-04-27 00:42 34.82094 33.55597 2736 ft 229 kts 226°
2026-04-27 00:43 34.80943 33.54113 3165 ft 253 kts 226°
2026-04-27 00:43 34.79697 33.52509 3840 ft 266 kts 226°
2026-04-27 00:43 34.78410 33.50859 4691 ft 272 kts 225°
2026-04-27 00:43 34.77111 33.49194 5565 ft 277 kts 225°
2026-04-27 00:44 34.75775 33.47486 6459 ft 280 kts 224°
2026-04-27 00:44 34.74423 33.45764 7315 ft 284 kts 224°
2026-04-27 00:44 34.73049 33.44015 8149 ft 288 kts 224°
2026-04-27 00:44 34.71654 33.42239 8991 ft 292 kts 224°
2026-04-27 00:45 34.70242 33.40438 9788 ft 297 kts 225°
2026-04-27 00:45 34.69002 33.38358 10271 ft 316 kts 240°
2026-04-27 00:45 34.68213 33.35756 10537 ft 340 kts 258°
2026-04-27 00:45 34.68070 33.32886 11079 ft 350 kts 273°
2026-04-27 00:46 34.68218 33.29918 11787 ft 354 kts 273°
2026-04-27 00:46 34.68351 33.26921 12512 ft 357 kts 272°
2026-04-27 00:46 34.68472 33.23894 13237 ft 360 kts 272°
2026-04-27 00:46 34.68588 33.20838 13923 ft 364 kts 272°
2026-04-27 00:47 34.68704 33.17759 14564 ft 366 kts 272°
2026-04-27 00:47 34.68819 33.14667 15202 ft 368 kts 272°
2026-04-27 00:47 34.68936 33.11553 15842 ft 370 kts 272°
2026-04-27 00:47 34.69056 33.08420 16484 ft 372 kts 272°
2026-04-27 00:48 34.69175 33.05318 17129 ft 374 kts 271°
2026-04-27 00:48 34.69297 33.02149 17786 ft 376 kts 271°
2026-04-27 00:48 34.69418 32.98966 18401 ft 378 kts 271°
2026-04-27 00:48 34.69540 32.95767 18955 ft 381 kts 271°
2026-04-27 00:49 34.69665 32.92537 19504 ft 384 kts 272°
2026-04-27 00:49 34.69791 32.89286 20053 ft 387 kts 272°
2026-04-27 00:49 34.69917 32.86003 20588 ft 390 kts 272°
2026-04-27 00:49 34.70040 32.82696 21096 ft 393 kts 272°
2026-04-27 00:50 34.70159 32.79411 21587 ft 396 kts 272°
2026-04-27 00:50 34.70400 32.72670 22584 ft 402 kts 272°
2026-04-27 00:50 34.70523 32.69264 23090 ft 405 kts 272°
2026-04-27 00:51 34.70646 32.65834 23563 ft 408 kts 272°
2026-04-27 00:51 34.70770 32.62376 23979 ft 411 kts 272°
2026-04-27 00:51 34.70893 32.58900 24403 ft 413 kts 272°
2026-04-27 00:51 34.71013 32.55400 24823 ft 415 kts 272°
2026-04-27 00:52 34.71135 32.51889 25240 ft 417 kts 272°
2026-04-27 00:52 34.71077 32.48354 25643 ft 419 kts 266°
2026-04-27 00:52 34.70899 32.44862 26051 ft 421 kts 266°
2026-04-27 00:52 34.70708 32.41299 26458 ft 424 kts 266°
2026-04-27 00:53 34.70513 32.37719 26863 ft 426 kts 266°
2026-04-27 00:53 34.70319 32.34122 27248 ft 428 kts 266°
2026-04-27 00:53 34.70123 32.30504 27628 ft 430 kts 266°
2026-04-27 00:53 34.69926 32.26865 28012 ft 433 kts 267°
2026-04-27 00:54 34.69730 32.23210 28389 ft 435 kts 267°
2026-04-27 00:54 34.69533 32.19530 28764 ft 437 kts 267°
2026-04-27 00:54 34.69333 32.15834 29146 ft 440 kts 267°
2026-04-27 00:54 34.69132 32.12165 29528 ft 442 kts 267°
2026-04-27 00:55 34.68922 32.08432 29904 ft 445 kts 267°
2026-04-27 00:55 34.68707 32.04673 30234 ft 447 kts 267°
2026-04-27 00:55 34.68492 32.00895 30556 ft 449 kts 267°
2026-04-27 00:55 34.68279 31.97107 30874 ft 451 kts 267°
2026-04-27 00:56 34.68069 31.93302 31240 ft 451 kts 268°
2026-04-27 00:56 34.68103 31.89511 31698 ft 448 kts 277°
2026-04-27 00:56 34.68584 31.85788 32163 ft 445 kts 283°
2026-04-27 00:56 34.69169 31.82156 32625 ft 443 kts 282°
2026-04-27 00:57 34.69751 31.78493 33093 ft 442 kts 282°
2026-04-27 00:57 34.70331 31.74830 33568 ft 440 kts 282°
2026-04-27 00:57 34.70906 31.71188 34019 ft 439 kts 283°
2026-04-27 00:57 34.71482 31.67547 34404 ft 438 kts 282°
2026-04-27 00:58 34.72054 31.63922 34775 ft 436 kts 282°
2026-04-27 00:58 34.72620 31.60303 35133 ft 435 kts 282°
2026-04-27 00:58 34.73184 31.56692 35489 ft 434 kts 282°
2026-04-27 00:58 34.73746 31.53096 35842 ft 433 kts 282°
2026-04-27 00:59 34.74303 31.49549 36187 ft 432 kts 282°
2026-04-27 00:59 34.74862 31.45970 36516 ft 431 kts 282°
2026-04-27 00:59 34.75416 31.42395 36846 ft 430 kts 281°
2026-04-27 00:59 34.75966 31.38828 37171 ft 428 kts 281°
2026-04-27 01:00 34.76515 31.35277 37491 ft 427 kts 281°
2026-04-27 01:00 34.77062 31.31732 37805 ft 426 kts 281°
2026-04-27 01:00 34.77610 31.28185 37920 ft 427 kts 281°
2026-04-27 01:01 34.78699 31.21129 37936 ft 427 kts 281°
2026-04-27 01:01 34.79795 31.14030 37936 ft 427 kts 281°
2026-04-27 01:02 34.80877 31.06920 37933 ft 427 kts 281°
2026-04-27 01:02 34.81956 30.99801 37939 ft 428 kts 282°
2026-04-27 01:03 34.83040 30.92684 37936 ft 428 kts 282°
2026-04-27 01:03 34.84109 30.85602 37938 ft 428 kts 282°
2026-04-27 01:04 34.85177 30.78463 37940 ft 429 kts 282°
2026-04-27 01:04 34.86246 30.71326 37942 ft 429 kts 282°
2026-04-27 01:05 34.87314 30.64186 37949 ft 429 kts 282°
2026-04-27 01:05 34.88362 30.57085 37948 ft 429 kts 282°
2026-04-27 01:06 34.89418 30.49942 37945 ft 429 kts 282°
2026-04-27 01:06 34.90472 30.42800 37954 ft 429 kts 282°
2026-04-27 01:07 34.91518 30.35648 37954 ft 428 kts 282°
2026-04-27 01:07 34.92559 30.28505 37957 ft 428 kts 282°
2026-04-27 01:08 34.93590 30.21413 37953 ft 428 kts 282°
2026-04-27 01:08 34.94623 30.14280 37954 ft 427 kts 282°
2026-04-27 01:09 34.95649 30.07145 37955 ft 427 kts 282°
2026-04-27 01:09 34.96930 30.00106 37955 ft 423 kts 292°
2026-04-27 01:10 34.99609 29.93821 37954 ft 420 kts 302°
2026-04-27 01:10 35.02539 29.87650 37949 ft 420 kts 301°
2026-04-27 01:11 35.05456 29.81470 37951 ft 420 kts 301°
2026-04-27 01:11 35.08362 29.75286 37953 ft 420 kts 301°
2026-04-27 01:12 35.11273 29.69099 37953 ft 420 kts 301°
2026-04-27 01:12 35.14160 29.62959 37954 ft 420 kts 301°
2026-04-27 01:13 35.17062 29.56771 37956 ft 419 kts 301°
2026-04-27 01:13 35.19960 29.50592 37958 ft 419 kts 301°
2026-04-27 01:14 35.22857 29.44414 37962 ft 418 kts 301°
2026-04-27 01:14 35.25717 29.38272 37960 ft 418 kts 301°
2026-04-27 01:15 35.28589 29.32090 37962 ft 418 kts 301°
2026-04-27 01:15 35.31458 29.25914 37967 ft 417 kts 301°
2026-04-27 01:16 35.34326 29.19733 37965 ft 417 kts 301°
2026-04-27 01:16 35.37172 29.13604 37966 ft 416 kts 301°
2026-04-27 01:17 35.40033 29.07442 37973 ft 416 kts 301°
2026-04-27 01:17 35.42890 29.01269 37971 ft 416 kts 301°
2026-04-27 01:18 35.45730 28.95101 37972 ft 415 kts 301°
2026-04-27 01:18 35.48542 28.88970 37973 ft 415 kts 301°
2026-04-27 01:19 35.51374 28.82798 37978 ft 415 kts 301°
2026-04-27 01:19 35.54199 28.76637 37978 ft 414 kts 301°
2026-04-27 01:20 35.57014 28.70471 37978 ft 414 kts 301°
2026-04-27 01:20 35.59805 28.64347 37975 ft 414 kts 301°
2026-04-27 01:21 35.62618 28.58183 37974 ft 414 kts 301°
2026-04-27 01:21 35.65428 28.52011 37981 ft 414 kts 301°
2026-04-27 01:22 35.68241 28.45840 37979 ft 414 kts 301°
2026-04-27 01:22 35.71045 28.39662 37983 ft 413 kts 300°
2026-04-27 01:23 35.73813 28.33524 37981 ft 413 kts 300°
2026-04-27 01:23 35.76604 28.27341 37984 ft 413 kts 300°
2026-04-27 01:24 35.79397 28.21162 37983 ft 413 kts 300°
2026-04-27 01:24 35.82181 28.14980 37988 ft 413 kts 300°
2026-04-27 01:25 35.84940 28.08833 37989 ft 412 kts 300°
2026-04-27 01:25 35.87709 28.02645 37996 ft 412 kts 300°
2026-04-27 01:26 35.90477 27.96460 38000 ft 412 kts 300°
2026-04-27 01:26 35.93243 27.90269 38002 ft 412 kts 300°
2026-04-27 01:27 35.95989 27.84119 38006 ft 412 kts 300°
2026-04-27 01:27 35.98749 27.77927 38008 ft 412 kts 300°
2026-04-27 01:28 36.01503 27.71732 38007 ft 412 kts 300°
2026-04-27 01:28 36.04256 27.65531 38014 ft 411 kts 300°
2026-04-27 01:29 36.06981 27.59369 38015 ft 411 kts 299°
2026-04-27 01:29 36.09716 27.53157 38015 ft 411 kts 299°
2026-04-27 01:30 36.12455 27.46944 38012 ft 412 kts 299°
2026-04-27 01:30 36.15201 27.40725 38015 ft 412 kts 299°
2026-04-27 01:31 36.17918 27.34545 38017 ft 412 kts 299°
2026-04-27 01:31 36.20646 27.28319 38020 ft 412 kts 299°
2026-04-27 01:32 36.23377 27.22084 38026 ft 412 kts 299°
2026-04-27 01:32 36.26105 27.15840 38029 ft 412 kts 299°
2026-04-27 01:33 36.28826 27.09595 38036 ft 412 kts 298°
2026-04-27 01:33 36.31527 27.03397 38035 ft 411 kts 298°
2026-04-27 01:34 36.34239 26.97151 38040 ft 411 kts 298°
2026-04-27 01:34 36.36943 26.90904 38043 ft 411 kts 298°
2026-04-27 01:35 36.39645 26.84665 38043 ft 410 kts 298°
2026-04-27 01:35 36.42326 26.78467 38048 ft 410 kts 298°
2026-04-27 01:36 36.45019 26.72220 38048 ft 410 kts 298°
2026-04-27 01:36 36.47704 26.65973 38048 ft 410 kts 298°
2026-04-27 01:37 36.50368 26.59766 38046 ft 410 kts 298°
2026-04-27 01:37 36.53051 26.53513 38052 ft 410 kts 298°
2026-04-27 01:38 36.55728 26.47252 38046 ft 410 kts 298°
2026-04-27 01:38 36.58403 26.40984 38050 ft 410 kts 298°
2026-04-27 01:39 36.61084 26.34707 38051 ft 411 kts 297°
2026-04-27 01:39 36.63740 26.28469 38053 ft 411 kts 297°
2026-04-27 01:40 36.66405 26.22173 38057 ft 411 kts 297°
2026-04-27 01:40 36.69072 26.15876 38057 ft 411 kts 297°
2026-04-27 01:41 36.71740 26.09573 38059 ft 411 kts 297°
2026-04-27 01:41 36.74390 26.03312 38056 ft 411 kts 297°
2026-04-27 01:42 36.77052 25.96998 38062 ft 411 kts 297°
2026-04-27 01:42 36.79705 25.90684 38064 ft 411 kts 297°
2026-04-27 01:43 36.82354 25.84368 38063 ft 411 kts 297°
2026-04-27 01:43 36.85001 25.78045 38063 ft 411 kts 297°
2026-04-27 01:44 36.87630 25.71768 38062 ft 410 kts 297°
2026-04-27 01:44 36.89842 25.66473 38063 ft 410 kts 297°